Time,TemperatureF,DewpointF,PressureIn,WindDirection,WindDirectionDegrees,WindSpeedMPH,WindSpeedGustMPH,Humidity,HourlyPrecipIn,Conditions,Clouds,dailyrainin,SoftwareType,DateUTC
2013-11-07 00:01:00,56.0,51.9,30.08,SW,234,6.0,8.0,86,0.00,,,0.00,Wunderground v.1.15,2013-11-07 05:01:00,
2013-11-07 00:02:00,56.0,51.9,30.08,SW,233,6.0,8.0,86,0.00,,,0.00,Wunderground v.1.15,2013-11-07 05:02:00,
2013-11-07 00:07:00,56.0,52.2,30.08,SW,230,5.0,5.0,87,0.00,,,0.00,Wunderground v.1.15,2013-11-07 05:07:00,
2013-11-07 00:11:00,56.0,51.9,30.08,SW,216,2.0,6.0,86,0.00,,,0.00,Wunderground v.1.15,2013-11-07 05:11:00,
2013-11-07 00:16:00,56.0,52.2,30.08,SSW,212,5.0,5.0,87,0.00,,,0.00,Wunderground v.1.15,2013-11-07 05:16:00,
2013-11-07 00:21:00,56.0,52.2,30.08,WSW,243,6.0,7.0,87,0.00,,,0.00,Wunderground v.1.15,2013-11-07 05:21:00,
2013-11-07 00:27:00,56.0,52.2,30.07,SW,233,5.0,7.0,87,0.00,,,0.00,Wunderground v.1.15,2013-11-07 05:27:00,
2013-11-07 00:33:00,56.0,52.2,30.07,WSW,240,4.0,7.0,87,0.00,,,0.00,Wunderground v.1.15,2013-11-07 05:33:00,
2013-11-07 00:38:00,56.0,52.2,30.07,SSW,202,10.0,10.0,87,0.00,,,0.00,Wunderground v.1.15,2013-11-07 05:38:00,
2013-11-07 00:43:00,56.0,52.2,30.07,SW,217,7.0,10.0,87,0.00,,,0.00,Wunderground v.1.15,2013-11-07 05:43:00,
2013-11-07 00:48:00,55.7,51.9,30.07,SW,217,6.0,6.0,87,0.00,,,0.00,Wunderground v.1.15,2013-11-07 05:48:00,
2013-11-07 00:53:00,55.7,52.2,30.04,SW,226,2.0,9.0,88,0.00,,,0.00,Wunderground v.1.15,2013-11-07 05:53:00,
2013-11-07 00:58:00,55.4,51.9,30.04,WSW,247,3.0,6.0,88,0.00,,,0.00,Wunderground v.1.15,2013-11-07 05:58:00,
2013-11-07 01:03:00,55.6,52.1,30.04,SW,232,1.0,6.0,88,0.00,,,0.00,Wunderground v.1.15,2013-11-07 06:03:00,
2013-11-07 01:09:00,55.4,52.2,30.04,SW,232,1.0,4.0,89,0.00,,,0.00,Wunderground v.1.15,2013-11-07 06:09:00,
2013-11-07 01:16:00,55.4,52.2,30.04,WSW,243,2.0,3.0,89,0.00,,,0.00,Wunderground v.1.15,2013-11-07 06:16:00,
2013-11-07 01:21:00,55.4,52.2,30.04,SSW,206,5.0,5.0,89,0.00,,,0.00,Wunderground v.1.15,2013-11-07 06:21:00,
2013-11-07 01:26:00,55.6,52.4,30.04,SW,215,2.0,3.0,89,0.00,,,0.00,Wunderground v.1.15,2013-11-07 06:26:00,
2013-11-07 01:31:00,55.6,52.4,30.04,WSW,246,1.0,4.0,89,0.00,,,0.00,Wunderground v.1.15,2013-11-07 06:31:00,
2013-11-07 01:36:00,55.6,52.4,30.04,WSW,247,2.0,2.0,89,0.00,,,0.00,Wunderground v.1.15,2013-11-07 06:36:00,
2013-11-07 01:42:00,55.6,52.4,30.03,SW,230,5.0,6.0,89,0.00,,,0.00,Wunderground v.1.15,2013-11-07 06:42:00,
2013-11-07 01:47:00,55.7,52.2,30.03,WSW,237,2.0,6.0,88,0.00,,,0.00,Wunderground v.1.15,2013-11-07 06:47:00,
2013-11-07 01:53:00,55.7,52.2,30.02,SW,216,5.0,6.0,88,0.00,,,0.00,Wunderground v.1.15,2013-11-07 06:53:00,
2013-11-07 01:58:00,55.7,52.5,30.02,SW,232,3.0,3.0,89,0.00,,,0.00,Wunderground v.1.15,2013-11-07 06:58:00,
2013-11-07 02:03:00,55.7,52.5,30.02,SW,232,2.0,3.0,89,0.00,,,0.00,Wunderground v.1.15,2013-11-07 07:03:00,
2013-11-07 02:08:00,55.7,52.5,30.02,SW,233,2.0,5.0,89,0.00,,,0.00,Wunderground v.1.15,2013-11-07 07:08:00,
2013-11-07 02:14:00,55.7,52.5,30.02,SW,222,3.0,5.0,89,0.00,,,0.00,Wunderground v.1.15,2013-11-07 07:14:00,
2013-11-07 02:18:00,55.7,52.5,30.02,SW,224,1.0,3.0,89,0.00,,,0.00,Wunderground v.1.15,2013-11-07 07:18:00,
2013-11-07 02:24:00,55.7,52.5,30.00,SW,222,3.0,6.0,89,0.00,,,0.00,Wunderground v.1.15,2013-11-07 07:24:00,
2013-11-07 02:29:00,55.7,52.5,30.00,SSW,210,5.0,6.0,89,0.00,,,0.00,Wunderground v.1.15,2013-11-07 07:29:00,
2013-11-07 02:34:00,55.7,52.5,30.00,SW,219,3.0,8.0,89,0.00,,,0.00,Wunderground v.1.15,2013-11-07 07:34:00,
2013-11-07 02:39:00,55.7,52.5,30.00,SW,232,2.0,7.0,89,0.00,,,0.00,Wunderground v.1.15,2013-11-07 07:39:00,
2013-11-07 02:44:00,55.7,52.5,30.00,SW,236,2.0,7.0,89,0.00,,,0.00,Wunderground v.1.15,2013-11-07 07:44:00,
2013-11-07 02:49:00,55.7,52.5,30.00,SSW,202,2.0,6.0,89,0.00,,,0.00,Wunderground v.1.15,2013-11-07 07:49:00,
2013-11-07 02:54:00,55.7,52.5,29.99,SW,224,4.0,6.0,89,0.00,,,0.00,Wunderground v.1.15,2013-11-07 07:54:00,
2013-11-07 02:59:00,55.7,52.5,29.99,SW,222,2.0,5.0,89,0.00,,,0.00,Wunderground v.1.15,2013-11-07 07:59:00,
2013-11-07 03:04:00,55.7,52.5,29.99,WSW,241,3.0,7.0,89,0.00,,,0.00,Wunderground v.1.15,2013-11-07 08:04:00,
2013-11-07 03:09:00,55.7,52.8,29.99,SW,219,2.0,4.0,90,0.00,,,0.00,Wunderground v.1.15,2013-11-07 08:09:00,
2013-11-07 03:14:00,55.7,52.8,29.99,SW,227,0.0,6.0,90,0.00,,,0.00,Wunderground v.1.15,2013-11-07 08:14:00,
2013-11-07 03:19:00,55.7,52.8,29.99,WSW,241,0.0,5.0,90,0.00,,,0.00,Wunderground v.1.15,2013-11-07 08:19:00,
2013-11-07 03:24:00,55.7,52.8,29.98,WSW,237,0.0,5.0,90,0.00,,,0.00,Wunderground v.1.15,2013-11-07 08:24:00,
2013-11-07 03:29:00,55.7,52.8,29.98,SW,229,2.0,8.0,90,0.00,,,0.00,Wunderground v.1.15,2013-11-07 08:29:00,
2013-11-07 03:34:00,55.9,53.0,29.98,SW,222,0.0,8.0,90,0.00,,,0.00,Wunderground v.1.15,2013-11-07 08:34:00,
2013-11-07 03:39:00,55.9,53.0,29.97,SW,222,0.0,1.0,90,0.00,,,0.00,Wunderground v.1.15,2013-11-07 08:39:00,
2013-11-07 03:44:00,55.7,52.8,29.97,SW,222,0.0,1.0,90,0.00,,,0.00,Wunderground v.1.15,2013-11-07 08:44:00,
2013-11-07 03:49:00,55.7,53.1,29.97,SW,222,0.0,0.0,91,0.00,,,0.00,Wunderground v.1.15,2013-11-07 08:49:00,
2013-11-07 03:54:00,55.6,52.7,29.97,SW,222,0.0,0.0,90,0.00,,,0.00,Wunderground v.1.15,2013-11-07 08:54:00,
2013-11-07 03:59:00,55.3,52.7,29.97,SW,222,0.0,0.0,91,0.00,,,0.00,Wunderground v.1.15,2013-11-07 08:59:00,
2013-11-07 04:04:00,55.1,52.5,29.97,SSW,213,2.0,3.0,91,0.00,,,0.00,Wunderground v.1.15,2013-11-07 09:04:00,
2013-11-07 04:09:00,54.8,52.5,29.97,SSW,213,0.0,3.0,92,0.00,,,0.00,Wunderground v.1.15,2013-11-07 09:09:00,
2013-11-07 04:14:00,54.7,52.4,29.97,SSW,213,0.0,3.0,92,0.00,,,0.00,Wunderground v.1.15,2013-11-07 09:14:00,
2013-11-07 04:19:00,54.5,52.2,29.97,SSW,213,1.0,3.0,92,0.00,,,0.00,Wunderground v.1.15,2013-11-07 09:19:00,
2013-11-07 04:24:00,54.4,52.4,29.97,SSW,200,3.0,5.0,93,0.00,,,0.00,Wunderground v.1.15,2013-11-07 09:24:00,
2013-11-07 04:29:00,54.4,53.0,29.97,SW,234,0.0,6.0,95,0.00,,,0.00,Wunderground v.1.15,2013-11-07 09:29:00,
2013-11-07 04:34:00,54.2,52.8,29.97,SW,219,0.0,1.0,95,0.00,,,0.00,Wunderground v.1.15,2013-11-07 09:34:00,
2013-11-07 04:39:00,54.1,53.0,29.97,SW,217,5.0,5.0,96,0.00,,,0.00,Wunderground v.1.15,2013-11-07 09:39:00,
2013-11-07 04:46:00,53.9,53.1,29.97,SW,224,2.0,2.0,97,0.00,,,0.00,Wunderground v.1.15,2013-11-07 09:46:00,
2013-11-07 04:51:00,53.8,53.5,29.97,SW,220,2.0,5.0,99,0.00,,,0.00,Wunderground v.1.15,2013-11-07 09:51:00,
2013-11-07 04:57:00,53.8,53.8,29.98,SSW,198,0.0,1.0,100,0.00,,,0.00,Wunderground v.1.15,2013-11-07 09:57:00,
2013-11-07 05:02:00,53.6,53.6,29.98,SSW,198,0.0,2.0,100,0.00,,,0.00,Wunderground v.1.15,2013-11-07 10:02:00,
2013-11-07 05:07:00,53.6,53.6,29.98,SSW,198,0.0,1.0,100,0.00,,,0.00,Wunderground v.1.15,2013-11-07 10:07:00,
2013-11-07 05:12:00,53.5,53.5,29.98,SSW,193,0.0,4.0,100,0.00,,,0.00,Wunderground v.1.15,2013-11-07 10:12:00,
2013-11-07 05:17:00,53.5,53.5,29.98,East,85,0.0,0.0,100,0.00,,,0.00,Wunderground v.1.15,2013-11-07 10:17:00,
2013-11-07 05:22:00,53.5,53.5,29.97,East,85,2.0,2.0,100,0.00,,,0.00,Wunderground v.1.15,2013-11-07 10:22:00,
2013-11-07 05:27:00,53.5,53.5,29.97,East,85,0.0,2.0,100,0.00,,,0.00,Wunderground v.1.15,2013-11-07 10:27:00,
2013-11-07 05:32:00,53.5,53.5,29.97,South,188,1.0,3.0,100,0.00,,,0.00,Wunderground v.1.15,2013-11-07 10:32:00,
2013-11-07 05:37:00,53.5,53.5,29.97,South,188,3.0,5.0,100,0.00,,,0.00,Wunderground v.1.15,2013-11-07 10:37:00,
2013-11-07 05:42:00,53.3,53.3,29.97,SSW,195,0.0,5.0,100,0.00,,,0.00,Wunderground v.1.15,2013-11-07 10:42:00,
2013-11-07 05:47:00,53.5,53.5,29.97,SSW,206,6.0,9.0,100,0.00,,,0.00,Wunderground v.1.15,2013-11-07 10:47:00,
2013-11-07 05:52:00,53.5,53.5,29.97,SSW,210,5.0,9.0,100,0.00,,,0.00,Wunderground v.1.15,2013-11-07 10:52:00,
2013-11-07 05:57:00,53.6,53.6,29.97,SSW,202,3.0,6.0,100,0.00,,,0.00,Wunderground v.1.15,2013-11-07 10:57:00,
2013-11-07 06:02:00,53.6,53.6,29.97,SSW,195,3.0,6.0,100,0.00,,,0.00,Wunderground v.1.15,2013-11-07 11:02:00,
2013-11-07 06:07:00,53.8,53.8,29.97,SSW,196,0.0,5.0,100,0.00,,,0.00,Wunderground v.1.15,2013-11-07 11:07:00,
2013-11-07 06:12:00,53.8,53.8,29.97,SSW,200,0.0,5.0,100,0.00,,,0.00,Wunderground v.1.15,2013-11-07 11:12:00,
2013-11-07 06:17:00,53.8,53.8,29.97,SSW,200,0.0,1.0,100,0.00,,,0.00,Wunderground v.1.15,2013-11-07 11:17:00,
2013-11-07 06:23:00,53.8,53.8,29.97,SSW,200,0.0,1.0,100,0.00,,,0.00,Wunderground v.1.15,2013-11-07 11:23:00,
2013-11-07 06:28:00,53.8,53.8,29.97,SSW,200,0.0,0.0,100,0.00,,,0.00,Wunderground v.1.15,2013-11-07 11:28:00,
2013-11-07 06:33:00,53.8,53.8,29.97,SSW,200,0.0,1.0,100,0.00,,,0.00,Wunderground v.1.15,2013-11-07 11:33:00,
2013-11-07 06:34:00,53.8,53.8,29.97,SSW,200,0.0,1.0,100,0.00,,,0.00,Wunderground v.1.15,2013-11-07 11:34:00,
2013-11-07 06:39:00,53.8,53.8,29.97,SSW,200,0.0,0.0,100,0.00,,,0.00,Wunderground v.1.15,2013-11-07 11:39:00,
2013-11-07 06:44:00,53.8,53.8,29.97,SSW,200,0.0,0.0,100,0.00,,,0.00,Wunderground v.1.15,2013-11-07 11:44:00,
2013-11-07 06:49:00,53.6,53.6,29.97,SE,134,0.0,2.0,100,0.00,,,0.00,Wunderground v.1.15,2013-11-07 11:49:00,
2013-11-07 06:54:00,53.8,53.8,29.98,SE,134,0.0,2.0,100,0.00,,,0.00,Wunderground v.1.15,2013-11-07 11:54:00,
2013-11-07 06:59:00,53.8,53.8,29.98,SE,134,0.0,0.0,100,0.00,,,0.00,Wunderground v.1.15,2013-11-07 11:59:00,
2013-11-07 07:04:00,53.8,53.8,29.98,SE,134,0.0,0.0,100,0.00,,,0.00,Wunderground v.1.15,2013-11-07 12:04:00,
2013-11-07 07:09:00,53.8,53.8,29.97,SE,134,0.0,0.0,100,0.00,,,0.00,Wunderground v.1.15,2013-11-07 12:09:00,
2013-11-07 07:14:00,53.8,53.8,29.97,SE,134,0.0,0.0,100,0.00,,,0.00,Wunderground v.1.15,2013-11-07 12:14:00,
2013-11-07 07:19:00,53.8,53.8,29.97,SE,134,0.0,0.0,100,0.00,,,0.00,Wunderground v.1.15,2013-11-07 12:19:00,
2013-11-07 07:24:00,53.8,53.8,29.99,SE,133,0.0,0.0,100,0.00,,,0.00,Wunderground v.1.15,2013-11-07 12:24:00,
2013-11-07 07:29:00,53.8,53.8,29.99,NE,47,3.0,3.0,100,0.00,,,0.00,Wunderground v.1.15,2013-11-07 12:29:00,
2013-11-07 07:34:00,53.8,53.8,29.99,NE,47,2.0,2.0,100,0.00,,,0.00,Wunderground v.1.15,2013-11-07 12:34:00,
2013-11-07 07:39:00,53.9,53.9,29.98,NE,47,3.0,3.0,100,0.00,,,0.00,Wunderground v.1.15,2013-11-07 12:39:00,
2013-11-07 07:44:00,53.9,53.9,29.98,NE,47,3.0,3.0,100,0.00,,,0.00,Wunderground v.1.15,2013-11-07 12:44:00,
2013-11-07 07:49:00,53.9,53.9,29.98,ENE,68,4.0,6.0,100,0.00,,,0.00,Wunderground v.1.15,2013-11-07 12:49:00,
2013-11-07 07:56:00,53.9,53.9,29.97,ENE,68,2.0,3.0,100,0.00,,,0.00,Wunderground v.1.15,2013-11-07 12:56:00,
2013-11-07 08:01:00,53.9,53.9,29.97,ENE,68,2.0,3.0,100,0.00,,,0.00,Wunderground v.1.15,2013-11-07 13:01:00,
2013-11-07 08:07:00,53.9,53.9,29.97,ENE,68,0.0,2.0,100,0.00,,,0.00,Wunderground v.1.15,2013-11-07 13:07:00,
2013-11-07 08:12:00,54.1,54.1,29.97,ENE,68,0.0,2.0,100,0.00,,,0.00,Wunderground v.1.15,2013-11-07 13:12:00,
2013-11-07 08:17:00,54.2,54.2,29.97,ENE,68,0.0,0.0,100,0.00,,,0.00,Wunderground v.1.15,2013-11-07 13:17:00,
2013-11-07 08:22:00,54.4,54.4,29.97,ENE,68,0.0,0.0,100,0.00,,,0.00,Wunderground v.1.15,2013-11-07 13:22:00,
2013-11-07 08:27:00,54.5,54.5,29.97,ENE,68,0.0,0.0,100,0.00,,,0.00,Wunderground v.1.15,2013-11-07 13:27:00,
2013-11-07 08:32:00,54.5,54.5,29.97,ENE,68,2.0,2.0,100,0.00,,,0.00,Wunderground v.1.15,2013-11-07 13:32:00,
2013-11-07 08:37:00,54.5,54.5,29.97,ENE,68,0.0,3.0,100,0.00,,,0.00,Wunderground v.1.15,2013-11-07 13:37:00,
2013-11-07 08:42:00,54.5,54.5,29.97,ENE,68,0.0,3.0,100,0.00,,,0.00,Wunderground v.1.15,2013-11-07 13:42:00,
2013-11-07 08:47:00,54.7,54.7,29.97,ENE,68,0.0,2.0,100,0.00,,,0.00,Wunderground v.1.15,2013-11-07 13:47:00,
2013-11-07 08:52:00,54.8,54.8,29.98,ENE,68,0.0,2.0,100,0.00,,,0.00,Wunderground v.1.15,2013-11-07 13:52:00,
2013-11-07 08:57:00,55.0,55.0,29.98,ENE,68,0.0,0.0,100,0.00,,,0.00,Wunderground v.1.15,2013-11-07 13:57:00,
2013-11-07 09:02:00,55.1,55.1,29.98,ENE,68,0.0,0.0,100,0.00,,,0.00,Wunderground v.1.15,2013-11-07 14:02:00,
2013-11-07 09:07:00,55.3,55.3,29.97,ENE,68,0.0,0.0,100,0.00,,,0.00,Wunderground v.1.15,2013-11-07 14:07:00,
2013-11-07 09:12:00,55.4,55.4,29.97,ENE,68,0.0,0.0,100,0.00,,,0.00,Wunderground v.1.15,2013-11-07 14:12:00,
2013-11-07 09:17:00,55.4,55.4,29.97,ENE,66,0.0,0.0,100,0.00,,,0.00,Wunderground v.1.15,2013-11-07 14:17:00,
2013-11-07 09:22:00,55.4,55.4,29.98,ENE,66,0.0,0.0,100,0.00,,,0.00,Wunderground v.1.15,2013-11-07 14:22:00,
2013-11-07 09:27:00,55.4,55.4,29.98,ENE,66,0.0,0.0,100,0.00,,,0.00,Wunderground v.1.15,2013-11-07 14:27:00,
2013-11-07 09:32:00,55.4,55.4,29.98,ENE,72,0.0,5.0,100,0.00,,,0.00,Wunderground v.1.15,2013-11-07 14:32:00,
2013-11-07 09:37:00,55.3,55.3,29.98,NE,56,0.0,5.0,100,0.00,,,0.00,Wunderground v.1.15,2013-11-07 14:37:00,
2013-11-07 09:42:00,55.0,55.0,29.98,NNE,21,3.0,6.0,100,0.00,,,0.00,Wunderground v.1.15,2013-11-07 14:42:00,
2013-11-07 09:47:00,54.8,54.8,29.98,NNE,25,3.0,5.0,100,0.00,,,0.00,Wunderground v.1.15,2013-11-07 14:47:00,
2013-11-07 09:52:00,54.8,54.8,29.99,ENE,66,0.0,7.0,100,0.00,,,0.00,Wunderground v.1.15,2013-11-07 14:52:00,
2013-11-07 09:57:00,54.8,54.8,29.99,North,8,3.0,8.0,100,0.00,,,0.00,Wunderground v.1.15,2013-11-07 14:57:00,
2013-11-07 10:03:00,54.8,54.8,29.99,ENE,64,6.0,8.0,100,0.00,,,0.00,Wunderground v.1.15,2013-11-07 15:03:00,
2013-11-07 10:08:00,54.8,54.8,29.99,NNE,24,2.0,6.0,100,0.00,,,0.00,Wunderground v.1.15,2013-11-07 15:08:00,
2013-11-07 10:13:00,55.0,55.0,29.99,ENE,68,2.0,6.0,100,0.00,,,0.00,Wunderground v.1.15,2013-11-07 15:13:00,
2013-11-07 10:18:00,54.8,54.8,29.99,ENE,66,0.0,2.0,100,0.00,,,0.00,Wunderground v.1.15,2013-11-07 15:18:00,
2013-11-07 10:23:00,54.7,54.7,29.99,East,93,5.0,8.0,100,0.00,,,0.00,Wunderground v.1.15,2013-11-07 15:23:00,
2013-11-07 10:28:00,54.4,54.4,29.99,ENE,78,5.0,9.0,100,0.00,,,0.00,Wunderground v.1.15,2013-11-07 15:28:00,
2013-11-07 10:33:00,54.5,54.5,29.99,East,90,2.0,9.0,100,0.00,,,0.00,Wunderground v.1.15,2013-11-07 15:33:00,
2013-11-07 10:38:00,54.7,54.7,29.99,NE,37,3.0,8.0,100,0.00,,,0.00,Wunderground v.1.15,2013-11-07 15:38:00,
2013-11-07 10:43:00,54.8,54.8,29.99,NE,48,3.0,8.0,100,0.00,,,0.00,Wunderground v.1.15,2013-11-07 15:43:00,
2013-11-07 10:48:00,55.3,54.7,29.99,NE,51,5.0,5.0,98,0.00,,,0.00,Wunderground v.1.15,2013-11-07 15:48:00,
2013-11-07 10:53:00,56.0,55.7,29.98,NE,51,1.0,5.0,99,0.00,,,0.00,Wunderground v.1.15,2013-11-07 15:53:00,
2013-11-07 10:58:00,56.7,55.3,29.98,ENE,64,6.0,6.0,95,0.00,,,0.00,Wunderground v.1.15,2013-11-07 15:58:00,
2013-11-07 11:03:00,57.2,54.3,29.98,East,82,7.0,11.0,90,0.00,,,0.00,Wunderground v.1.15,2013-11-07 16:03:00,
2013-11-07 11:08:00,57.2,53.7,29.98,ENE,68,2.0,7.0,88,0.00,,,0.00,Wunderground v.1.15,2013-11-07 16:08:00,
2013-11-07 11:13:00,57.0,53.2,29.98,ENE,68,6.0,10.0,87,0.00,,,0.00,Wunderground v.1.15,2013-11-07 16:13:00,
2013-11-07 11:18:00,57.2,53.0,29.98,East,79,0.0,6.0,86,0.00,,,0.00,Wunderground v.1.15,2013-11-07 16:18:00,
2013-11-07 11:23:00,57.5,52.4,29.98,NNE,31,0.0,8.0,83,0.00,,,0.00,Wunderground v.1.15,2013-11-07 16:23:00,
2013-11-07 11:28:00,58.0,50.1,29.98,North,359,1.0,10.0,75,0.00,,,0.00,Wunderground v.1.15,2013-11-07 16:28:00,
2013-11-07 11:33:00,58.7,50.4,29.98,NE,37,1.0,10.0,74,0.00,,,0.00,Wunderground v.1.15,2013-11-07 16:33:00,
2013-11-07 11:38:00,59.5,51.6,29.98,West,272,5.0,5.0,75,0.00,,,0.00,Wunderground v.1.15,2013-11-07 16:38:00,
2013-11-07 11:43:00,60.1,49.5,29.98,SW,215,0.0,11.0,68,0.00,,,0.00,Wunderground v.1.15,2013-11-07 16:43:00,
2013-11-07 11:48:00,60.5,49.1,29.98,North,350,1.0,2.0,66,0.00,,,0.00,Wunderground v.1.15,2013-11-07 16:48:00,
2013-11-07 11:53:00,60.4,48.2,29.97,North,0,3.0,13.0,64,0.00,,,0.00,Wunderground v.1.15,2013-11-07 16:53:00,
2013-11-07 11:58:00,59.8,48.0,29.97,ENE,76,11.0,11.0,65,0.00,,,0.00,Wunderground v.1.15,2013-11-07 16:58:00,
2013-11-07 12:04:00,59.5,48.1,29.97,East,95,2.0,12.0,66,0.00,,,0.00,Wunderground v.1.15,2013-11-07 17:04:00,
2013-11-07 12:09:00,59.6,46.1,29.96,East,99,6.0,11.0,61,0.00,,,0.00,Wunderground v.1.15,2013-11-07 17:09:00,
2013-11-07 12:14:00,59.9,45.1,29.96,NE,56,7.0,14.0,58,0.00,,,0.00,Wunderground v.1.15,2013-11-07 17:14:00,
2013-11-07 12:19:00,59.9,48.1,29.96,ENE,76,3.0,8.0,65,0.00,,,0.00,Wunderground v.1.15,2013-11-07 17:19:00,
2013-11-07 12:24:00,59.5,47.3,29.96,NNE,23,7.0,16.0,64,0.00,,,0.00,Wunderground v.1.15,2013-11-07 17:24:00,
2013-11-07 12:29:00,59.0,48.1,29.96,ENE,66,10.0,14.0,67,0.00,,,0.00,Wunderground v.1.15,2013-11-07 17:29:00,
2013-11-07 12:34:00,58.6,48.1,29.96,ENE,76,10.0,18.0,68,0.00,,,0.00,Wunderground v.1.15,2013-11-07 17:34:00,
2013-11-07 12:39:00,58.4,47.5,29.96,ENE,68,9.0,13.0,67,0.00,,,0.00,Wunderground v.1.15,2013-11-07 17:39:00,
2013-11-07 12:44:00,58.3,47.4,29.96,East,82,12.0,16.0,67,0.00,,,0.00,Wunderground v.1.15,2013-11-07 17:44:00,
2013-11-07 12:49:00,58.3,47.4,29.96,ENE,66,8.0,10.0,67,0.00,,,0.00,Wunderground v.1.15,2013-11-07 17:49:00,
2013-11-07 12:54:00,58.1,45.6,29.97,ENE,73,12.0,17.0,63,0.00,,,0.00,Wunderground v.1.15,2013-11-07 17:54:00,
2013-11-07 12:58:00,58.1,45.1,29.97,NE,55,10.0,12.0,62,0.00,,,0.00,Wunderground v.1.15,2013-11-07 17:58:00,
2013-11-07 13:03:00,58.3,45.3,29.97,NE,37,6.0,12.0,62,0.00,,,0.00,Wunderground v.1.15,2013-11-07 18:03:00,
2013-11-07 13:08:00,58.3,44.5,29.96,ENE,66,8.0,10.0,60,0.00,,,0.00,Wunderground v.1.15,2013-11-07 18:08:00,
2013-11-07 13:13:00,58.3,42.7,29.96,NE,52,8.0,16.0,56,0.00,,,0.00,Wunderground v.1.15,2013-11-07 18:13:00,
2013-11-07 13:18:00,58.0,42.8,29.96,ENE,66,11.0,13.0,57,0.00,,,0.00,Wunderground v.1.15,2013-11-07 18:18:00,
2013-11-07 13:23:00,57.5,41.9,29.97,ENE,64,11.0,15.0,56,0.00,,,0.00,Wunderground v.1.15,2013-11-07 18:23:00,
2013-11-07 13:28:00,57.0,41.9,29.97,NE,56,8.0,18.0,57,0.00,,,0.00,Wunderground v.1.15,2013-11-07 18:28:00,
2013-11-07 13:33:00,56.6,41.5,29.97,ENE,58,10.0,18.0,57,0.00,,,0.00,Wunderground v.1.15,2013-11-07 18:33:00,
2013-11-07 13:38:00,56.0,41.0,29.97,ENE,59,11.0,17.0,57,0.00,,,0.00,Wunderground v.1.15,2013-11-07 18:38:00,
2013-11-07 13:44:00,55.6,40.6,29.97,East,96,11.0,17.0,57,0.00,,,0.00,Wunderground v.1.15,2013-11-07 18:44:00,
2013-11-07 13:49:00,55.3,39.9,29.97,ENE,62,12.0,17.0,56,0.00,,,0.00,Wunderground v.1.15,2013-11-07 18:49:00,
2013-11-07 13:54:00,55.0,38.6,29.98,East,89,13.0,18.0,54,0.00,,,0.00,Wunderground v.1.15,2013-11-07 18:54:00,
2013-11-07 13:59:00,54.7,38.4,29.98,NE,48,13.0,21.0,54,0.00,,,0.00,Wunderground v.1.15,2013-11-07 18:59:00,
2013-11-07 14:04:00,54.5,37.7,29.98,ENE,59,12.0,21.0,53,0.00,,,0.00,Wunderground v.1.15,2013-11-07 19:04:00,
2013-11-07 14:09:00,54.4,38.6,29.98,ENE,59,10.0,13.0,55,0.00,,,0.00,Wunderground v.1.15,2013-11-07 19:09:00,
2013-11-07 14:14:00,54.4,38.6,29.98,NNE,30,14.0,14.0,55,0.00,,,0.00,Wunderground v.1.15,2013-11-07 19:14:00,
2013-11-07 14:19:00,54.4,38.1,29.98,NE,40,13.0,16.0,54,0.00,,,0.00,Wunderground v.1.15,2013-11-07 19:19:00,
2013-11-07 14:24:00,54.4,37.6,29.98,ENE,69,7.0,16.0,53,0.00,,,0.00,Wunderground v.1.15,2013-11-07 19:24:00,
2013-11-07 14:29:00,54.4,36.1,29.98,NE,49,8.0,17.0,50,0.00,,,0.00,Wunderground v.1.15,2013-11-07 19:29:00,
2013-11-07 14:34:00,54.2,35.9,29.98,NE,49,8.0,17.0,50,0.00,,,0.00,Wunderground v.1.15,2013-11-07 19:34:00,
2013-11-07 14:39:00,53.9,35.2,29.98,NE,49,8.0,18.0,49,0.00,,,0.00,Wunderground v.1.15,2013-11-07 19:39:00,
2013-11-07 14:44:00,53.8,35.1,29.98,ENE,58,11.0,18.0,49,0.00,,,0.00,Wunderground v.1.15,2013-11-07 19:44:00,
2013-11-07 14:49:00,53.8,33.5,29.98,ENE,78,8.0,14.0,46,0.00,,,0.00,Wunderground v.1.15,2013-11-07 19:49:00,
2013-11-07 14:54:00,53.8,32.9,29.98,East,85,11.0,16.0,45,0.00,,,0.00,Wunderground v.1.15,2013-11-07 19:54:00,
2013-11-07 14:59:00,53.9,30.7,29.98,ENE,68,7.0,16.0,41,0.00,,,0.00,Wunderground v.1.15,2013-11-07 19:59:00,
2013-11-07 15:04:00,54.1,31.5,29.98,ENE,68,7.0,16.0,42,0.00,,,0.00,Wunderground v.1.15,2013-11-07 20:04:00,
2013-11-07 15:09:00,54.2,31.0,29.98,ENE,71,6.0,11.0,41,0.00,,,0.00,Wunderground v.1.15,2013-11-07 20:09:00,
2013-11-07 15:14:00,54.4,31.8,29.98,ENE,69,5.0,11.0,42,0.00,,,0.00,Wunderground v.1.15,2013-11-07 20:14:00,
2013-11-07 15:19:00,54.5,30.6,29.98,NNE,20,4.0,7.0,40,0.00,,,0.00,Wunderground v.1.15,2013-11-07 20:19:00,
2013-11-07 15:24:00,54.8,30.9,29.99,NE,56,4.0,7.0,40,0.00,,,0.00,Wunderground v.1.15,2013-11-07 20:24:00,
2013-11-07 15:29:00,55.0,30.5,29.99,ENE,75,3.0,8.0,39,0.00,,,0.00,Wunderground v.1.15,2013-11-07 20:29:00,
2013-11-07 15:34:00,55.1,29.3,29.99,ENE,72,3.0,8.0,37,0.00,,,0.00,Wunderground v.1.15,2013-11-07 20:34:00,
2013-11-07 15:39:00,55.4,28.9,29.99,East,80,5.0,8.0,36,0.00,,,0.00,Wunderground v.1.15,2013-11-07 20:39:00,
2013-11-07 15:44:00,55.4,26.7,29.99,NNE,24,5.0,9.0,33,0.00,,,0.00,Wunderground v.1.15,2013-11-07 20:44:00,
2013-11-07 15:49:00,55.3,26.7,29.99,ENE,62,6.0,11.0,33,0.00,,,0.00,Wunderground v.1.15,2013-11-07 20:49:00,
2013-11-07 15:54:00,55.3,23.5,30.01,ENE,75,1.0,11.0,29,0.00,,,0.00,Wunderground v.1.15,2013-11-07 20:54:00,
2013-11-07 15:59:00,55.3,29.4,30.01,NNE,32,3.0,6.0,37,0.00,,,0.00,Wunderground v.1.15,2013-11-07 20:59:00,
2013-11-07 16:04:00,54.5,28.7,30.01,ENE,75,3.0,7.0,37,0.00,,,0.00,Wunderground v.1.15,2013-11-07 21:04:00,
2013-11-07 16:09:00,53.6,31.0,30.01,ENE,71,7.0,8.0,42,0.00,,,0.00,Wunderground v.1.15,2013-11-07 21:09:00,
2013-11-07 16:14:00,52.6,28.9,30.01,NE,56,2.0,8.0,40,0.00,,,0.00,Wunderground v.1.15,2013-11-07 21:14:00,
2013-11-07 16:19:00,52.0,29.6,30.01,East,80,2.0,6.0,42,0.00,,,0.00,Wunderground v.1.15,2013-11-07 21:19:00,
2013-11-07 16:24:00,51.6,29.8,30.01,ENE,68,5.0,8.0,43,0.00,,,0.00,Wunderground v.1.15,2013-11-07 21:24:00,
2013-11-07 16:29:00,51.4,29.1,30.01,ENE,62,5.0,6.0,42,0.00,,,0.00,Wunderground v.1.15,2013-11-07 21:29:00,
2013-11-07 16:34:00,51.3,28.4,30.01,NE,34,6.0,6.0,41,0.00,,,0.00,Wunderground v.1.15,2013-11-07 21:34:00,
2013-11-07 16:39:00,51.0,26.9,30.02,ENE,73,3.0,7.0,39,0.00,,,0.00,Wunderground v.1.15,2013-11-07 21:39:00,
2013-11-07 16:46:00,50.2,25.5,30.02,ENE,76,5.0,5.0,38,0.00,,,0.00,Wunderground v.1.15,2013-11-07 21:46:00,
2013-11-07 16:52:00,50.1,24.8,30.02,NE,45,6.0,8.0,37,0.00,,,0.00,Wunderground v.1.15,2013-11-07 21:52:00,
2013-11-07 16:57:00,50.1,25.5,30.02,North,354,4.0,5.0,38,0.00,,,0.00,Wunderground v.1.15,2013-11-07 21:57:00,
2013-11-07 17:02:00,49.9,25.3,30.02,NNE,16,6.0,11.0,38,0.00,,,0.00,Wunderground v.1.15,2013-11-07 22:02:00,
2013-11-07 17:07:00,49.8,22.5,30.03,ENE,61,5.0,5.0,34,0.00,,,0.00,Wunderground v.1.15,2013-11-07 22:07:00,
2013-11-07 17:12:00,49.6,23.7,30.03,NE,37,0.0,5.0,36,0.00,,,0.00,Wunderground v.1.15,2013-11-07 22:12:00,
2013-11-07 17:17:00,49.5,23.6,30.03,NE,34,6.0,6.0,36,0.00,,,0.00,Wunderground v.1.15,2013-11-07 22:17:00,
2013-11-07 17:22:00,49.2,22.0,30.04,North,354,1.0,8.0,34,0.00,,,0.00,Wunderground v.1.15,2013-11-07 22:22:00,
2013-11-07 17:27:00,48.8,24.3,30.04,NNE,18,3.0,4.0,38,0.00,,,0.00,Wunderground v.1.15,2013-11-07 22:27:00,
2013-11-07 17:32:00,48.5,22.7,30.04,NW,319,6.0,10.0,36,0.00,,,0.00,Wunderground v.1.15,2013-11-07 22:32:00,
2013-11-07 17:37:00,48.0,22.3,30.05,NNE,30,4.0,10.0,36,0.00,,,0.00,Wunderground v.1.15,2013-11-07 22:37:00,
2013-11-07 17:42:00,47.9,22.8,30.05,NNE,31,2.0,10.0,37,0.00,,,0.00,Wunderground v.1.15,2013-11-07 22:42:00,
2013-11-07 17:47:00,47.6,22.6,30.05,NE,40,3.0,3.0,37,0.00,,,0.00,Wunderground v.1.15,2013-11-07 22:47:00,
2013-11-07 17:52:00,47.3,25.3,30.06,NE,52,5.0,6.0,42,0.00,,,0.00,Wunderground v.1.15,2013-11-07 22:52:00,
2013-11-07 17:57:00,46.7,27.0,30.06,NE,52,3.0,5.0,46,0.00,,,0.00,Wunderground v.1.15,2013-11-07 22:57:00,
2013-11-07 18:02:00,46.1,27.5,30.06,East,79,2.0,6.0,48,0.00,,,0.00,Wunderground v.1.15,2013-11-07 23:02:00,
2013-11-07 18:07:00,45.5,27.9,30.06,ENE,64,2.0,7.0,50,0.00,,,0.00,Wunderground v.1.15,2013-11-07 23:07:00,
2013-11-07 18:13:00,45.1,28.0,30.06,NNE,30,2.0,7.0,51,0.00,,,0.00,Wunderground v.1.15,2013-11-07 23:13:00,
2013-11-07 18:18:00,44.6,28.0,30.06,ENE,58,4.0,4.0,52,0.00,,,0.00,Wunderground v.1.15,2013-11-07 23:18:00,
2013-11-07 18:23:00,44.3,28.2,30.07,NE,41,3.0,7.0,53,0.00,,,0.00,Wunderground v.1.15,2013-11-07 23:23:00,
2013-11-07 18:28:00,44.2,28.6,30.07,NNE,27,8.0,10.0,54,0.00,,,0.00,Wunderground v.1.15,2013-11-07 23:28:00,
2013-11-07 18:33:00,44.2,26.7,30.07,NE,38,3.0,10.0,50,0.00,,,0.00,Wunderground v.1.15,2013-11-07 23:33:00,
2013-11-07 18:38:00,43.9,27.4,30.07,ENE,76,6.0,7.0,52,0.00,,,0.00,Wunderground v.1.15,2013-11-07 23:38:00,
2013-11-07 18:43:00,43.8,28.7,30.07,NNE,25,6.0,7.0,55,0.00,,,0.00,Wunderground v.1.15,2013-11-07 23:43:00,
2013-11-07 18:48:00,43.6,26.6,30.07,ENE,66,1.0,7.0,51,0.00,,,0.00,Wunderground v.1.15,2013-11-07 23:48:00,
2013-11-07 18:53:00,43.8,26.8,30.08,NE,52,5.0,8.0,51,0.00,,,0.00,Wunderground v.1.15,2013-11-07 23:53:00,
2013-11-07 18:58:00,43.8,27.3,30.08,NNE,23,6.0,6.0,52,0.00,,,0.00,Wunderground v.1.15,2013-11-07 23:58:00,
2013-11-07 19:03:00,43.8,27.3,30.08,North,359,2.0,9.0,52,0.00,,,0.00,Wunderground v.1.15,2013-11-08 00:03:00,
2013-11-07 19:08:00,43.8,27.3,30.09,North,0,3.0,10.0,52,0.00,,,0.00,Wunderground v.1.15,2013-11-08 00:08:00,
2013-11-07 19:13:00,43.6,28.0,30.09,NE,55,3.0,10.0,54,0.00,,,0.00,Wunderground v.1.15,2013-11-08 00:13:00,
2013-11-07 19:18:00,43.6,27.1,30.09,North,0,2.0,5.0,52,0.00,,,0.00,Wunderground v.1.15,2013-11-08 00:18:00,
2013-11-07 19:23:00,43.6,27.1,30.09,ENE,62,3.0,5.0,52,0.00,,,0.00,Wunderground v.1.15,2013-11-08 00:23:00,
2013-11-07 19:28:00,43.1,28.0,30.09,NE,55,2.0,8.0,55,0.00,,,0.00,Wunderground v.1.15,2013-11-08 00:28:00,
2013-11-07 19:33:00,42.9,27.8,30.09,NE,54,2.0,8.0,55,0.00,,,0.00,Wunderground v.1.15,2013-11-08 00:33:00,
2013-11-07 19:38:00,42.8,27.7,30.09,NE,42,3.0,9.0,55,0.00,,,0.00,Wunderground v.1.15,2013-11-08 00:38:00,
2013-11-07 19:43:00,42.5,27.5,30.09,NNE,18,3.0,9.0,55,0.00,,,0.00,Wunderground v.1.15,2013-11-08 00:43:00,
2013-11-07 19:48:00,42.3,27.7,30.09,NE,38,4.0,7.0,56,0.00,,,0.00,Wunderground v.1.15,2013-11-08 00:48:00,
2013-11-07 19:53:00,42.1,27.9,30.09,NE,44,2.0,7.0,57,0.00,,,0.00,Wunderground v.1.15,2013-11-08 00:53:00,
2013-11-07 19:58:00,41.9,28.2,30.09,ENE,58,5.0,5.0,58,0.00,,,0.00,Wunderground v.1.15,2013-11-08 00:58:00,
2013-11-07 20:04:00,41.8,28.1,30.09,ENE,78,4.0,7.0,58,0.00,,,0.00,Wunderground v.1.15,2013-11-08 01:04:00,
2013-11-07 20:09:00,41.8,28.1,30.09,East,89,2.0,11.0,58,0.00,,,0.00,Wunderground v.1.15,2013-11-08 01:09:00,
2013-11-07 20:14:00,41.6,28.3,30.09,NE,56,5.0,11.0,59,0.00,,,0.00,Wunderground v.1.15,2013-11-08 01:14:00,
2013-11-07 20:19:00,41.6,28.3,30.09,NNE,21,2.0,6.0,59,0.00,,,0.00,Wunderground v.1.15,2013-11-08 01:19:00,
2013-11-07 20:24:00,41.5,28.2,30.09,ENE,72,2.0,8.0,59,0.00,,,0.00,Wunderground v.1.15,2013-11-08 01:24:00,
2013-11-07 20:29:00,41.3,28.4,30.09,NNE,17,1.0,3.0,60,0.00,,,0.00,Wunderground v.1.15,2013-11-08 01:29:00,
2013-11-07 20:34:00,41.1,28.7,30.09,NE,34,2.0,6.0,61,0.00,,,0.00,Wunderground v.1.15,2013-11-08 01:34:00,
2013-11-07 20:39:00,40.9,28.5,30.09,NE,34,3.0,3.0,61,0.00,,,0.00,Wunderground v.1.15,2013-11-08 01:39:00,
2013-11-07 20:44:00,40.9,28.9,30.09,ENE,69,1.0,5.0,62,0.00,,,0.00,Wunderground v.1.15,2013-11-08 01:44:00,
2013-11-07 20:49:00,40.6,29.0,30.09,ENE,68,4.0,4.0,63,0.00,,,0.00,Wunderground v.1.15,2013-11-08 01:49:00,
2013-11-07 20:54:00,40.3,29.5,30.10,ENE,76,2.0,6.0,65,0.00,,,0.00,Wunderground v.1.15,2013-11-08 01:54:00,
2013-11-07 20:59:00,40.2,29.7,30.10,NE,48,3.0,3.0,66,0.00,,,0.00,Wunderground v.1.15,2013-11-08 01:59:00,
2013-11-07 21:04:00,40.1,29.6,30.10,NNE,31,1.0,4.0,66,0.00,,,0.00,Wunderground v.1.15,2013-11-08 02:04:00,
2013-11-07 21:09:00,39.9,29.5,30.10,NNW,329,2.0,7.0,66,0.00,,,0.00,Wunderground v.1.15,2013-11-08 02:09:00,
2013-11-07 21:14:00,39.8,29.0,30.10,North,1,2.0,7.0,65,0.00,,,0.00,Wunderground v.1.15,2013-11-08 02:14:00,
2013-11-07 21:19:00,39.9,29.1,30.10,NNE,27,2.0,5.0,65,0.00,,,0.00,Wunderground v.1.15,2013-11-08 02:19:00,
2013-11-07 21:24:00,39.9,29.5,30.11,NNE,27,2.0,5.0,66,0.00,,,0.00,Wunderground v.1.15,2013-11-08 02:24:00,
2013-11-07 21:29:00,39.8,29.4,30.11,NNE,25,2.0,3.0,66,0.00,,,0.00,Wunderground v.1.15,2013-11-08 02:29:00,
2013-11-07 21:34:00,39.6,29.9,30.11,NNE,27,0.0,3.0,68,0.00,,,0.00,Wunderground v.1.15,2013-11-08 02:34:00,
2013-11-07 21:39:00,39.5,29.1,30.11,NNE,14,3.0,6.0,66,0.00,,,0.00,Wunderground v.1.15,2013-11-08 02:39:00,
2013-11-07 21:44:00,39.5,29.1,30.11,NNE,27,0.0,6.0,66,0.00,,,0.00,Wunderground v.1.15,2013-11-08 02:44:00,
2013-11-07 21:49:00,39.6,29.2,30.11,ENE,69,0.0,6.0,66,0.00,,,0.00,Wunderground v.1.15,2013-11-08 02:49:00,
2013-11-07 21:54:00,39.6,28.8,30.11,North,359,1.0,6.0,65,0.00,,,0.00,Wunderground v.1.15,2013-11-08 02:54:00,
2013-11-07 21:59:00,39.6,28.8,30.11,North,359,0.0,2.0,65,0.00,,,0.00,Wunderground v.1.15,2013-11-08 02:59:00,
2013-11-07 22:04:00,39.6,29.2,30.11,NNW,337,1.0,1.0,66,0.00,,,0.00,Wunderground v.1.15,2013-11-08 03:04:00,
2013-11-07 22:11:00,39.6,29.2,30.11,North,11,1.0,5.0,66,0.00,,,0.00,Wunderground v.1.15,2013-11-08 03:11:00,
2013-11-07 22:17:00,39.5,29.1,30.11,East,85,2.0,2.0,66,0.00,,,0.00,Wunderground v.1.15,2013-11-08 03:17:00,
2013-11-07 22:22:00,39.5,28.7,30.11,North,0,0.0,3.0,65,0.00,,,0.00,Wunderground v.1.15,2013-11-08 03:22:00,
2013-11-07 22:27:00,39.3,28.9,30.11,NNE,20,5.0,6.0,66,0.00,,,0.00,Wunderground v.1.15,2013-11-08 03:27:00,
2013-11-07 22:32:00,39.5,29.1,30.11,NW,312,0.0,8.0,66,0.00,,,0.00,Wunderground v.1.15,2013-11-08 03:32:00,
2013-11-07 22:37:00,39.2,29.2,30.11,NE,49,5.0,5.0,67,0.00,,,0.00,Wunderground v.1.15,2013-11-08 03:37:00,
2013-11-07 22:42:00,38.9,29.6,30.11,NE,52,5.0,5.0,69,0.00,,,0.00,Wunderground v.1.15,2013-11-08 03:42:00,
2013-11-07 22:47:00,38.8,29.5,30.11,ENE,71,0.0,3.0,69,0.00,,,0.00,Wunderground v.1.15,2013-11-08 03:47:00,
2013-11-07 22:52:00,38.6,29.3,30.10,NNW,336,3.0,3.0,69,0.00,,,0.00,Wunderground v.1.15,2013-11-08 03:52:00,
2013-11-07 22:57:00,38.6,27.8,30.10,NNE,30,5.0,6.0,65,0.00,,,0.00,Wunderground v.1.15,2013-11-08 03:57:00,
2013-11-07 23:02:00,38.8,28.4,30.10,NNW,333,3.0,6.0,66,0.00,,,0.00,Wunderground v.1.15,2013-11-08 04:02:00,
2013-11-07 23:07:00,38.8,28.4,30.10,NW,323,0.0,3.0,66,0.00,,,0.00,Wunderground v.1.15,2013-11-08 04:07:00,
2013-11-07 23:12:00,38.6,27.8,30.10,North,4,0.0,8.0,65,0.00,,,0.00,Wunderground v.1.15,2013-11-08 04:12:00,
2013-11-07 23:17:00,38.6,27.8,30.10,North,353,1.0,9.0,65,0.00,,,0.00,Wunderground v.1.15,2013-11-08 04:17:00,
2013-11-07 23:22:00,38.8,28.4,30.10,ESE,104,0.0,9.0,66,0.00,,,0.00,Wunderground v.1.15,2013-11-08 04:22:00,
2013-11-07 23:27:00,38.6,27.5,30.10,ENE,61,0.0,4.0,64,0.00,,,0.00,Wunderground v.1.15,2013-11-08 04:27:00,
2013-11-07 23:32:00,38.6,27.8,30.10,NE,52,2.0,5.0,65,0.00,,,0.00,Wunderground v.1.15,2013-11-08 04:32:00,
2013-11-07 23:38:00,38.5,27.7,30.11,NE,54,0.0,3.0,65,0.00,,,0.00,Wunderground v.1.15,2013-11-08 04:38:00,
2013-11-07 23:43:00,38.5,27.4,30.11,ENE,58,5.0,5.0,64,0.00,,,0.00,Wunderground v.1.15,2013-11-08 04:43:00,
2013-11-07 23:48:00,38.5,27.7,30.11,North,359,10.0,10.0,65,0.00,,,0.00,Wunderground v.1.15,2013-11-08 04:48:00,
2013-11-07 23:53:00,38.5,27.7,30.11,NNE,18,1.0,11.0,65,0.00,,,0.00,Wunderground v.1.15,2013-11-08 04:53:00,
2013-11-07 23:58:00,38.3,27.6,30.11,NE,49,8.0,13.0,65,0.00,,,0.00,Wunderground v.1.15,2013-11-08 04:58:00,